Wind_Speed
7 6 11 16 12 3 9 11 16 19 23 24 25 32 37 41 36 37 28 23 23 25 28 29 29 33 38 38 32 27 25 21 17 13 6 4 5 2 1 1 3 3 3 4 4 0 5 8 14
8 7 8 11 4 4 6 11 17 22 20 21 24 32 37 42 39 37 28 24 22 24 26 29 30 33 37 45 47 50 47 38 30 21 18 14 11 9 10 7 4 2 2 5 5 4 3 7 14
11 9 5 9 3 6 8 13 17 17 18 25 20 28 33 42 45 37 28 23 22 25 26 26 32 34 32 36 41 46 48 52 49 40 28 20 17 13 12 13 9 4 1 2 2 2 3 7 16
13 10 7 4 7 1 6 14 9 17 21 26 20 25 34 44 45 39 28 23 21 24 25 27 31 33 33 33 35 37 41 43 42 44 43 36 22 15 14 12 12 9 5 2 1 2 4 3 5
15 11 8 9 11 8 6 6 2 15 20 25 19 23 38 47 44 39 30 24 21 22 20 25 28 29 32 32 35 31 31 34 38 42 44 40 32 20 15 10 9 9 6 4 2 1 1 3 5
17 13 9 6 9 10 10 12 4 10 19 17 19 25 37 45 43 43 32 23 21 22 17 14 22 22 28 30 29 26 28 31 35 36 40 38 34 32 29 21 12 10 10 8 5 2 3 4 5
20 17 13 4 7 8 9 4 10 9 18 14 21 21 31 39 42 44 34 21 21 22 17 12 16 14 20 26 29 25 29 32 36 38 38 40 33 28 25 26 14 9 12 10 7 4 3 4 8
23 20 13 7 11 9 17 5 15 11 12 19 10 16 26 34 39 41 44 23 19 20 17 14 16 15 13 18 24 25 24 31 34 34 35 39 36 29 22 23 22 17 18 15 12 7 7 7 4
26 22 18 15 19 9 15 14 13 15 10 17 11 13 22 28 37 38 46 33 18 18 12 15 14 16 15 18 15 19 23 26 30 31 32 35 35 30 20 19 19 17 18 21 16 15 12 10 9
27 24 23 20 16 7 9 13 9 12 11 12 12 12 18 25 32 43 42 38 17 14 16 12 11 16 15 18 17 15 19 23 27 27 32 33 32 31 24 17 16 17 18 22 22 17 18 15 11
28 25 26 22 14 10 16 14 13 14 16 11 9 10 18 24 24 35 40 38 24 11 14 14 12 14 15 17 20 19 24 25 29 30 31 35 34 35 28 22 19 18 21 24 26 21 19 19 17
30 29 29 27 19 18 20 23 14 15 13 6 9 17 17 19 22 34 35 37 26 9 8 9 9 12 15 17 22 25 27 27 30 29 31 35 37 37 32 25 22 20 22 27 27 25 27 24 23
34 31 31 30 23 18 22 26 20 14 10 16 13 13 19 19 23 31 29 31 27 10 3 6 8 8 11 21 23 25 27 28 30 29 26 34 36 37 35 30 20 18 24 29 31 28 28 28 29
37 36 32 32 29 23 22 24 27 20 20 20 14 15 17 17 22 30 24 27 24 16 1 3 5 6 11 14 20 24 25 27 30 30 29 33 35 36 35 34 26 19 27 31 34 31 31 32 33
42 40 35 33 31 28 30 27 25 27 26 22 17 17 17 15 20 24 23 23 21 19 3 6 4 5 2 9 11 17 21 24 28 20 27 32 35 34 35 36 32 26 30 34 36 33 31 32 32
47 44 40 36 34 29 33 40 25 24 28 19 18 16 16 15 18 19 18 23 25 19 4 5 8 4 4 3 3 11 16 19 23 20 26 27 32 33 35 36 35 28 30 34 37 35 33 31 27
53 49 46 42 41 34 35 34 28 29 28 24 24 21 21 20 26 18 14 25 26 20 7 5 11 9 1 5 1 4 10 12 13 14 23 28 27 32 33 35 37 33 26 30 34 35 34 30 27
57 53 51 49 44 42 38 40 38 35 34 36 34 29 28 25 20 19 19 25 24 20 9 7 7 15 10 6 4 1 5 8 11 16 20 24 24 25 32 33 35 36 34 27 29 31 32 30 29
62 59 57 53 49 46 42 40 37 36 39 39 39 35 30 20 20 23 23 25 20 17 14 8 10 10 13 13 9 5 1 6 7 14 18 21 22 20 25 31 33 33 35 37 34 27 25 27 28
69 66 63 59 56 52 47 45 43 43 45 42 38 30 26 25 23 26 26 26 21 20 16 10 11 8 12 16 11 7 6 2 3 12 13 17 20 23 17 28 32 32 32 33 36 36 33 30 28
74 72 66 62 60 60 54 51 49 48 50 49 48 41 34 37 33 32 31 28 23 23 17 16 12 9 13 16 10 7 7 5 2 8 9 12 16 20 22 25 29 30 32 32 32 33 31 30 31
79 77 72 67 66 64 62 57 54 54 55 54 52 52 49 45 41 38 34 29 26 24 19 22 16 10 13 18 13 9 6 6 2 4 5 8 13 15 15 21 24 26 30 30 30 31 31 29 31
76 75 75 71 69 67 65 63 62 62 59 56 53 52 50 45 44 40 36 36 30 26 22 17 19 16 15 17 15 12 9 6 5 2 2 5 9 12 13 13 21 23 24 26 27 29 31 31 32
73 72 72 70 69 70 66 65 65 65 61 58 55 52 50 46 45 42 39 35 28 25 19 16 20 22 19 17 16 13 10 7 5 4 4 1 5 7 8 12 16 19 19 21 23 25 27 27 28
79 77 74 71 68 67 66 65 64 64 63 60 58 56 52 47 44 42 38 37 30 26 20 15 18 24 23 19 16 14 10 8 6 5 3 3 3 3 5 10 12 15 17 18 19 21 22 23 23
83 81 78 74 72 71 69 65 63 62 62 59 57 56 54 51 46 44 39 37 32 30 25 18 16 19 26 24 19 17 14 12 11 8 6 3 2 1 2 1 8 10 12 14 16 18 18 19 20
85 84 83 79 76 74 72 69 67 62 59 55 53 53 53 51 49 47 44 36 29 34 28 20 15 19 25 28 24 21 18 15 13 12 9 5 4 2 1 0 3 5 7 9 12 14 14 16 17
88 87 87 85 81 78 74 71 68 65 61 58 55 52 51 48 50 47 44 36 31 35 29 23 22 22 22 29 29 26 22 20 18 16 14 10 7 5 3 2 1 1 2 4 6 8 9 11 14
93 91 89 88 87 84 80 76 71 68 64 62 61 59 56 50 47 46 41 36 35 37 33 29 29 24 25 28 31 31 30 26 24 21 19 16 13 11 9 7 3 2 2 2 3 4 5 6 8
98 95 93 91 89 88 86 82 77 72 69 67 65 63 60 56 48 46 43 38 42 43 34 34 29 23 23 23 25 29 29 31 31 28 25 22 20 18 15 13 9 7 6 4 3 5 5 4 4
Wind_Direction
148 134 85 74 67 21 192 310 329 339 347 354 7 14 18 12 16 21 32 34 30 33 49 48 51 58 50 47 42 40 38 32 25 23 31 76 103 126 77 345 311 296 333 338 1 54 196 188 201
173 155 144 19 4 213 235 300 318 327 347 5 14 23 21 16 19 23 34 38 37 40 61 52 56 58 60 59 61 59 57 52 49 49 52 64 75 85 70 66 37 323 300 316 338 355 242 205 215
195 207 223 118 62 359 265 283 304 345 3 4 17 16 14 15 21 23 34 40 39 49 70 56 61 61 64 60 60 59 56 59 59 58 58 64 70 76 78 78 80 67 51 287 313 313 294 254 237
222 238 258 169 176 126 286 311 337 5 12 4 16 5 19 20 18 23 32 41 43 51 77 66 66 62 63 65 60 60 60 55 58 56 57 58 58 67 82 77 76 73 77 89 141 246 244 238 232
227 225 228 147 202 212 305 357 11 6 5 2 3 355 18 15 16 20 29 39 40 48 88 67 68 64 62 55 50 51 50 46 47 60 55 54 58 62 65 74 63 71 73 81 104 119 224 200 223
218 216 227 191 230 223 227 277 257 359 348 360 16 9 5 6 12 16 29 37 36 46 87 79 65 58 48 47 38 41 46 48 46 39 42 48 55 56 49 45 49 64 61 68 63 22 292 268 247
215 216 228 217 207 208 183 185 193 2 344 352 25 4 356 357 7 15 27 33 40 49 75 79 56 42 37 50 52 50 46 48 41 33 32 42 45 44 46 44 59 37 7 22 38 34 33 245 242
210 220 216 184 160 154 162 145 188 323 340 342 16 343 346 352 2 19 21 23 41 51 71 66 48 49 49 46 50 52 49 39 36 33 36 34 37 37 38 39 39 43 43 39 32 27 17 4 324
213 211 192 192 159 155 192 227 217 266 305 357 333 317 347 347 354 19 17 20 31 47 56 53 58 52 47 64 52 49 39 28 28 27 27 29 30 35 40 36 34 46 48 46 44 41 44 44 42
217 217 207 210 199 176 221 187 174 277 258 340 359 323 348 344 0 6 15 15 23 41 39 51 62 61 55 53 57 51 39 28 39 35 35 30 32 34 39 39 40 48 56 48 50 55 55 56 50
221 219 217 212 212 196 204 190 226 230 282 342 345 332 335 338 357 4 4 9 13 40 43 66 69 55 55 62 61 45 35 47 45 37 36 29 34 37 42 43 47 53 58 53 51 60 55 51 57
226 220 215 215 214 208 207 188 176 205 222 316 302 316 316 327 344 3 357 7 4 34 47 68 39 42 48 65 60 55 49 43 42 36 32 31 37 39 44 40 51 63 67 60 54 67 62 59 61
226 227 218 221 214 222 208 192 207 195 219 254 292 283 291 312 335 352 350 2 360 16 62 58 33 42 51 70 61 57 51 46 44 39 35 34 37 40 44 46 55 70 78 67 60 73 75 71 74
227 227 222 222 214 196 210 201 211 220 244 244 254 278 303 311 329 342 346 355 0 357 194 110 71 52 55 69 65 60 51 45 44 37 38 41 39 42 45 49 57 82 81 69 67 76 78 82 82
227 225 221 221 217 218 210 208 232 238 242 251 268 289 294 300 323 340 344 357 5 357 222 196 132 49 42 35 49 58 52 45 48 34 42 47 42 42 47 51 55 84 84 74 69 79 80 84 88
229 226 224 228 229 220 221 207 227 240 240 246 238 252 272 290 325 339 345 359 356 358 299 213 175 141 327 341 62 71 50 43 47 41 44 48 44 44 46 53 61 76 81 76 73 77 84 82 90
230 230 229 228 232 224 230 234 234 240 239 234 242 251 263 277 283 316 331 342 344 350 320 255 218 159 294 321 45 58 53 35 41 42 45 52 49 45 46 54 61 73 78 76 78 77 82 86 89
228 229 233 236 232 232 229 233 235 230 230 230 239 246 255 262 276 286 311 323 331 339 332 264 249 207 204 262 271 288 67 51 34 46 51 55 53 49 49 51 59 65 72 76 77 78 80 83 88
230 232 233 237 237 235 234 237 234 234 228 235 242 246 248 252 267 283 304 318 321 325 331 266 269 232 215 238 253 258 106 41 28 47 47 57 57 53 52 57 57 62 68 70 77 80 78 78 76
230 232 233 235 239 236 236 235 234 233 238 240 242 238 240 251 256 281 297 304 310 310 318 293 259 245 217 226 243 245 233 350 358 51 39 54 55 58 60 63 60 62 65 67 72 75 78 81 81
230 231 230 234 236 239 235 235 237 235 237 242 244 242 237 256 264 277 285 296 300 299 302 304 244 244 210 220 236 249 241 230 241 55 44 58 60 55 53 62 66 62 64 67 68 74 75 73 73
229 230 231 231 233 236 237 235 236 237 237 240 242 247 251 258 264 268 276 285 289 283 295 309 243 219 224 222 232 242 250 236 199 52 42 63 66 62 52 58 66 69 67 67 69 69 69 68 71
231 230 228 226 228 233 235 236 236 238 237 240 244 247 251 254 259 262 267 276 279 275 288 288 260 223 221 223 223 226 234 212 192 133 89 68 62 63 60 56 63 66 70 69 66 66 66 67 69
231 231 231 228 228 230 232 236 239 240 242 243 245 249 252 254 258 260 265 268 275 270 269 289 285 235 224 219 213 220 216 215 215 168 145 88 85 70 58 60 64 66 68 73 73 70 67 66 66
231 231 230 229 228 228 230 234 238 242 243 244 245 247 248 249 254 260 263 261 266 257 263 269 272 258 226 220 210 208 206 201 201 177 182 131 111 89 72 57 56 62 66 70 72 73 74 69 66
231 232 231 230 229 229 229 230 232 237 242 244 246 247 251 251 249 250 254 260 263 248 249 248 260 255 241 226 216 208 205 196 199 196 194 131 104 104 63 24 55 59 60 63 70 71 71 76 73
231 232 232 231 229 230 231 230 232 233 238 241 243 244 247 249 251 254 256 249 250 248 243 244 250 252 237 231 224 215 222 223 206 210 214 195 157 123 56 54 85 52 53 57 59 64 69 70 72
231 232 233 233 231 230 230 231 232 233 233 237 239 239 240 244 249 248 247 245 240 240 242 250 254 244 238 230 226 221 219 224 229 229 233 221 220 193 215 232 77 81 7 43 49 57 61 62 66
230 232 232 233 233 232 230 230 230 231 232 233 235 237 240 239 241 243 236 232 231 231 240 253 257 261 234 226 222 222 220 222 228 232 243 248 237 234 227 243 232 244 278 356 1 16 31 50 59
230 231 232 234 234 234 233 232 230 231 233 231 231 233 236 240 234 238 237 227 222 226 231 237 243 249 243 237 231 230 229 226 228 234 238 245 258 256 249 249 248 248 252 283 324 324 321 333 7
Height
10996 10997 10996 10996 10996 10999 10998 10996 10994 10993 10991 10990 10987 10985 10980 10975 10968 10961 10956 10953 10950 10947 10943 10940 10936 10934 10929 10924 10918 10914 10909 10905 10901 10901 10902 10904 10906 10908 10908 10908 10909 10911 10912 10913 10914 10915 10915 10917 10918
10997 10997 10995 10989 10999 10999 10998 10996 10995 10994 10994 10991 10988 10985 10981 10977 10970 10964 10960 10958 10955 10951 10948 10946 10942 10938 10934 10931 10925 10919 10913 10907 10903 10901 10901 10902 10905 10907 10908 10908 10908 10910 10913 10914 10915 10915 10916 10918 10919
10997 10997 10997 11000 11000 10998 10998 10997 10996 10998 10995 10993 10990 10987 10983 10979 10974 10968 10964 10961 10959 10956 10953 10952 10948 10944 10940 10936 10931 10925 10919 10914 10910 10906 10906 10907 10906 10907 10908 10909 10910 10910 10912 10913 10914 10916 10917 10918 10919
10995 10996 10997 11000 10999 10999 10999 10999 11000 10998 10996 10994 10991 10990 10987 10980 10976 10970 10967 10965 10962 10960 10958 10957 10953 10949 10946 10941 10937 10932 10927 10923 10919 10915 10914 10912 10911 10910 10909 10911 10912 10911 10911 10912 10914 10914 10916 10917 10918
10994 10995 10998 11000 10998 10998 10998 11000 11000 10997 10996 10996 10994 10992 10988 10984 10980 10974 10970 10968 10965 10963 10961 10960 10958 10954 10951 10947 10944 10938 10934 10929 10924 10921 10919 10917 10915 10914 10913 10912 10912 10913 10912 10912 10912 10913 10914 10915 10917
10993 10995 10997 10997 10997 10999 10998 11000 10999 10996 10997 10997 10994 10994 10991 10987 10983 10978 10973 10971 10969 10966 10964 10963 10961 10958 10955 10950 10947 10943 10938 10934 10929 10927 10924 10923 10921 10918 10917 10916 10914 10913 10913 10912 10911 10912 10912 10913 10914
10991 10994 10996 10997 10999 10999 10999 11000 10989 10996 10997 10997 10995 10994 10993 10991 10987 10983 10977 10975 10973 10970 10967 10966 10964 10962 10960 10956 10953 10948 10942 10940 10935 10931 10928 10926 10924 10922 10921 10919 10918 10917 10914 10913 10911 10910 10910 10910 10911
10990 10993 10995 10997 11000 10999 11001 11000 11000 10999 11001 10998 10997 10996 10996 10994 10991 10986 10981 10979 10976 10974 10972 10971 10968 10965 10964 10962 10957 10953 10948 10945 10941 10938 10935 10930 10927 10924 10921 10920 10919 10918 10916 10914 10912 10910 10910 10909 10910
10987 10991 10994 10996 11000 11000 11002 11002 11002 11002 11003 11000 10998 10998 10999 10997 10994 10988 10984 10982 10980 10978 10976 10975 10972 10970 10967 10965 10962 10958 10954 10950 10947 10944 10939 10935 10931 10927 10924 10922 10920 10919 10917 10916 10913 10911 10911 10911 10912
10984 10989 10991 10993 10995 10997 11000 11000 10995 11000 11002 11002 11000 11001 11001 10999 10996 10992 10989 10985 10983 10982 10980 10978 10976 10974 10971 10969 10965 10963 10959 10956 10952 10949 10946 10941 10936 10931 10927 10925 10922 10921 10920 10919 10915 10913 10913 10912 10911
10981 10985 10987 10990 10993 10996 11000 11001 11001 11003 11001 11001 11001 11001 11001 11000 10997 10996 10992 10988 10986 10986 10985 10984 10980 10978 10975 10973 10970 10967 10964 10961 10958 10954 10950 10945 10940 10934 10930 10927 10924 10924 10923 10922 10918 10916 10916 10915 10914
10977 10979 10984 10988 10991 10994 10997 10999 11000 10999 11000 11001 10999 10999 11001 11000 10999 10998 10996 10992 10989 10989 10988 10988 10985 10981 10980 10976 10974 10972 10968 10966 10962 10958 10954 10949 10944 10939 10934 10930 10927 10927 10927 10925 10922 10919 10918 10918 10917
10972 10974 10979 10984 10989 10991 10994 10996 10996 10995 10998 10999 10998 11000 11000 11000 11000 11000 10998 10996 10992 10992 10991 10991 10989 10985 10984 10981 10978 10976 10973 10970 10967 10963 10959 10955 10950 10945 10940 10935 10932 10932 10931 10929 10927 10925 10924 10924 10923
10965 10969 10975 10980 10986 10989 10991 10992 10992 10992 10995 10997 10997 10998 11000 11000 11001 11001 10999 10997 10995 10994 10994 10993 10992 10989 10988 10985 10983 10982 10979 10976 10972 10971 10967 10961 10957 10952 10947 10942 10938 10936 10936 10934 10932 10930 10930 10930 10931
10958 10964 10970 10975 10981 10984 10988 10989 10990 10990 10992 10995 10998 10996 10999 11000 11000 11001 11001 10999 10996 10994 10996 10995 10994 10993 10992 10990 10989 10988 10984 10983 10979 10977 10974 10968 10964 10960 10956 10950 10944 10942 10942 10939 10936 10935 10935 10936 10939
10952 10959 10966 10972 10975 10981 10980 10985 10987 10987 10989 10991 10994 10996 10997 10999 11001 11000 11000 11000 10998 10995 10996 10997 10996 10995 10995 10994 10993 10992 10990 10988 10987 10984 10980 10974 10970 10967 10963 10958 10952 10947 10947 10945 10942 10941 10941 10942 10946
10946 10952 10959 10965 10968 10975 10978 10979 10983 10984 10987 10988 10991 10996 10996 10999 10998 11000 11000 11001 10999 10997 10995 10997 10996 10997 10997 10995 10996 10996 10994 10993 10992 10989 10984 10980 10978 10974 10971 10966 10961 10955 10954 10951 10949 10947 10947 10948 10951
10939 10945 10950 10955 10962 10967 10973 10975 10979 10981 10982 10983 10987 10993 10994 10997 10996 10997 11000 10999 10999 10998 10996 10996 10997 10997 10999 10998 10998 10998 10998 10998 10997 10993 10989 10986 10984 10981 10977 10971 10967 10964 10962 10958 10955 10954 10955 10956 10956
10929 10937 10943 10949 10954 10960 10966 10969 10973 10975 10977 10978 10981 10987 10990 10993 10995 10994 10997 10997 10999 10998 10996 10995 10996 10996 10998 10999 11000 11000 11000 11001 11000 10997 10993 10991 10989 10986 10984 10980 10975 10971 10969 10965 10962 10961 10962 10962 10963
10918 10926 10934 10942 10946 10951 10957 10961 10964 10968 10968 10972 10975 10982 10985 10988 10993 10993 10994 10995 10998 10997 10996 10994 10994 10995 10997 10999 11001 11001 11002 11003 11003 11000 10998 10996 10993 10993 10991 10986 10982 10979 10976 10972 10970 10970 10970 10970 10968
10904 10913 10926 10935 10937 10940 10949 10951 10957 10960 10961 10964 10968 10973 10979 10982 10989 10992 10992 10994 10996 10997 10996 10995 10992 10993 10996 10999 11000 11000 11002 11004 11004 11002 11003 11001 10998 10997 10995 10991 10987 10985 10981 10979 10978 10976 10976 10975 10972
10888 10899 10916 10926 10927 10934 10939 10944 10947 10950 10950 10954 10962 10967 10973 10978 10982 10988 10990 10993 10995 10995 10995 10995 10993 10991 10995 10997 10999 11000 11002 11004 11004 11003 11004 11005 11002 11000 11000 10997 10993 10991 10987 10986 10985 10984 10981 10980 10977
10872 10889 10902 10913 10917 10924 10929 10932 10936 10934 10943 10949 10957 10962 10968 10975 10978 10984 10987 10989 10990 10993 10995 10994 10993 10992 10993 10996 10999 11000 11002 11004 11005 11005 11005 11006 11004 11005 11004 11002 10998 10996 10994 10992 10991 10989 10987 10986 10984
10865 10874 10886 10897 10906 10913 10919 10921 10925 10929 10937 10946 10953 10958 10964 10972 10975 10979 10982 10984 10987 10989 10990 10991 10992 10991 10993 10994 10997 11000 11002 11004 11005 11005 11006 11007 11006 11007 11006 11004 11002 11001 11000 10998 10997 10995 10993 10992 10991
10849 10858 10870 10881 10893 10901 10909 10911 10913 10919 10926 10936 10945 10950 10956 10963 10967 10970 10976 10980 10981 10983 10985 10986 10989 10990 10991 10993 10994 10998 11001 11003 11006 11006 11008 11008 11008 11009 11008 11007 11006 11006 11004 11004 11002 11000 10999 10998 10998
10830 10841 10853 10868 10878 10885 10894 10901 10906 10910 10917 10930 10937 10943 10946 10953 10960 10963 10968 10973 10977 10977 10980 10982 10984 10987 10990 10991 10993 10995 10999 11001 11004 11006 11008 11008 11009 11010 11011 11010 11010 11010 11009 11008 11006 11005 11003 11003 11003
10815 10824 10835 10848 10861 10870 10880 10889 10894 10904 10912 10921 10929 10936 10938 10943 10950 10955 10962 10965 10969 10973 10976 10978 10980 10983 10986 10989 10991 10994 10998 11001 11004 11005 11007 11008 11010 11010 11011 11012 11011 11012 11012 11011 11010 11009 11008 11007 11006
10796 10807 10817 10829 10843 10856 10867 10877 10887 10895 10905 10912 10919 10925 10928 10935 10939 10947 10953 10959 10964 10970 10974 10975 10976 10979 10982 10985 10988 10990 10994 10997 11002 11006 11006 11007 11009 11010 11012 11013 11013 11012 11014 11013 11012 11012 11012 11011 11010
10780 10790 10800 10811 10823 10837 10850 10863 10875 10882 10893 10900 10906 10912 10916 10925 10929 10935 10945 10950 10955 10961 10967 10970 10974 10978 10978 10978 10982 10986 10989 10993 10997 11001 11005 11007 11007 11009 11011 11012 11013 11013 11014 11014 11013 11013 11013 11012 11012
10760 10772 10784 10795 10806 10818 10831 10846 10861 10870 10878 10886 10893 10899 10906 10913 10922 10927 10934 10940 10946 10952 10959 10964 10970 10972 10976 10979 10981 10983 10986 10988 10992 10996 11000 11003 11006 11008 11008 11010 11011 11012 11013 11013 11012 11012 11013 11013 11012